Flag for Brunei Weather past 2 weeks in Bandar Seri Begawan, Brunei

82 °F

Scattered clouds.

Feels Like: 92 °F
Forecast: 77 / 89 °F
Wind: 5 mph from South

Location: Brunei Airport

Current Time: Dec 1, 2015 at 10:22:33 AM

Latest Report: Dec 1, 2015 at 8:30 AM

Visibility: N/A

Pressure: 29.86 "Hg

Humidity: 89%

Dew point: 79 °F

Location of Bandar Seri BegawanLocation

Historic Weather in Bandar Seri Begawan — Graph


Bandar Seri Begawan temperature yesterday

Maximum temperature yesterday: 91 °F (at 2:30 PM)
Minimum temperature yesterday: 79 °F (at 3:30 AM)
Average temperature yesterday: 84 °F

Past Weeks' High & Low Weather Summary

High91 °F (Nov 29, 12:30 PM)100% (Nov 16, 7:00 AM)29.92 "Hg (Nov 16, 7:00 AM)
Low73 °F (Nov 18, 4:00 PM)56% (Nov 29, 1:00 PM)29.71 "Hg (Nov 19, 3:00 PM)
Average82 °F88%29.81 "Hg
* Reported Nov 16 7:00 AM — Dec 1 7:30 AM, Bandar Seri Begawan, Weather by CustomWeather, © 2015

Note: Actual official high and low records may vary slightly from our data, if they occured in-between our weather recording intervals... More about our weather records


Bandar Seri Begawan weather history for previous 24 hours

Time TempWeatherWind HumidityBarometerVisibility
7:30 AM
Tue, Dec 1
79 °FPartly sunny.5 mph94%29.83 "HgN/A
7:00 AM77 °FPartly sunny.2 mph100%29.83 "HgN/A
6:30 AM77 °FPartly sunny.3 mph100%29.83 "HgN/A
6:00 AM77 °FPassing clouds.5 mph100%29.83 "HgN/A
5:30 AM77 °FPassing clouds.5 mph100%29.80 "HgN/A
5:00 AM77 °FPartly cloudy.7 mph100%29.80 "HgN/A
4:30 AM77 °FPassing clouds.6 mph100%29.80 "HgN/A
4:00 AM77 °FPassing clouds.2 mph100%29.80 "HgN/A
3:30 AM79 °FPassing clouds.5 mph94%29.80 "HgN/A
3:00 AM79 °FPassing clouds.6 mph100%29.80 "HgN/A
2:30 AM79 °FPassing clouds.2 mph94%29.80 "HgN/A
2:00 AM79 °FLight rain. Passing clouds.3 mph94%29.80 "HgN/A
1:30 AM81 °FLight rain. Passing clouds.3 mph89%29.83 "HgN/A
1:00 AM81 °FLight rain. Partly cloudy.3 mph89%29.83 "HgN/A
12:30 AM79 °FLight rain. Partly cloudy.5 mph94%29.83 "HgN/A
12:00 AM81 °FThunderstorms. Partly cloudy.9 mph89%29.83 "HgN/A
11:30 PM
Mon, Nov 30
79 °FThunderstorms. Partly cloudy.3 mph100%29.86 "Hg4 mi
11:00 PM82 °FThunderstorms. Partly cloudy.6 mph89%29.86 "Hg4 mi
10:30 PM86 °FThunderstorms. Partly cloudy.6 mph79%29.86 "HgN/A
10:00 PM86 °FThunderstorms. Partly cloudy.7 mph79%29.86 "HgN/A
9:30 PM86 °FPartly cloudy.6 mph79%29.86 "HgN/A
9:00 PM86 °FPartly cloudy.6 mph79%29.83 "HgN/A
8:30 PM86 °FPartly cloudy.7 mph79%29.83 "HgN/A
8:00 PM86 °FPartly cloudy.5 mph79%29.83 "HgN/A
7:30 PM86 °FPassing clouds.3 mph79%29.83 "HgN/A
7:00 PM86 °FPassing clouds.3 mph79%29.80 "HgN/A
6:30 PM86 °FPassing clouds.3 mph75%29.80 "HgN/A
3:00 PM90 °FPartly sunny.8 mph59%29.77 "HgN/A
2:30 PM91 °FPartly sunny.8 mph63%29.77 "HgN/A
2:00 PM90 °FPartly sunny.7 mph67%29.80 "HgN/A
1:30 PM90 °FBroken clouds.7 mph71%29.83 "HgN/A
1:00 PM90 °FBroken clouds.7 mph75%29.83 "HgN/A
12:30 PM88 °FBroken clouds.7 mph75%29.86 "HgN/A
11:30 AM88 °FBroken clouds.8 mph79%29.86 "HgN/A
11:00 AM90 °FPartly sunny.3 mph67%29.89 "HgN/A
10:30 AM88 °FPartly sunny.3 mph75%29.89 "HgN/A
10:00 AM88 °FPartly sunny.5 mph75%29.89 "HgN/A
Weather by CustomWeather, © 2015

See weather overviewHow to use our weather pages